Find Raduga

NORAD ID: 21821 Int'l Des: 1991-087 Owner: UNKSR Country: SU operational
HEOCIRCULARGSO

Current View

Loading 3D Globe...

About Raduga

Description loading...

Upcoming Passes

Passes for default location (London). Set your location on the main map for personalized predictions.

Altitude History

Loading altitude history...

Two-Line Element Set

1 21821U 91087A 26149.15779196 .00000093 00000-0 00000+0 0 9997
2 21821 13.3789 341.1966 0004118 182.9193 186.5345 1.00339457126131
Epoch: May 29, 2026 • Age: 22 hours

Current Status

Altitude 35783.4 km
Velocity 3.07 km/s
Sub-Earth Point -5.26°S, 47.96°E
Launch Date Dec 19, 1991
Age 34.4 years
Type other

Technical Details

Classification Payload
Mass 1965.00 kg
Dry Mass 1800.00 kg
Total Mass 1965.00 kg
Length 5.50 m
Diameter 2.50 m
Span 9.50 m
Shape Step Cyl + 2 Pan
Manufacturer NPOPM
Bus Type Raduga
Phase Status In Orbit
Owner/State UNKSR/SU

Most Searched